Location: S�tio Afonso Gruber
(26.1760°S, 49.5250°W)
Time: 14:51:47
(UTC+00:00)

IRS-1C Rocket - Pass Details

Date: 07 June 2020
Orbit: 801 x 805 km, 99.0° (Epoch: 07 July)

Event Time Altitude Azimuth Distance (km) Brightness Sun altitude
Rises 09:21:44 0° 13° (NNE) 3,302 7.8 -8.9°
Reaches altitude 10° 09:24:02 10° 13° (NNE) 2,378 7.0 -8.4°
Maximum altitude 09:29:19 87° 283° (WNW) 815 4.1 -7.3°
Drops below altitude 10° 09:34:39 10° 194° (SSW) 2,405 6.2 -6.2°
Sets 09:37:00 0° 193° (SSW) 3,341 7.0 -5.7°
